Wind_Speed
15 15 17 17 20 22 22 23 21 19 19 18 18 16 14 13 10 8 6 3 3 4 6 6 6 7 8 7 6 5 3 2 2 1 1 2 2 2 2 2 2 2 1 1 1 2 2 2 3
14 14 16 17 19 21 22 21 20 20 19 19 18 17 15 12 10 8 6 3 3 4 5 6 6 7 7 7 6 5 4 3 3 2 2 2 2 3 3 3 2 2 1 1 1 1 2 2 2
14 13 14 17 19 19 21 20 20 20 20 20 18 17 14 13 11 9 7 4 2 3 4 5 7 7 7 7 7 5 5 4 3 3 2 3 3 3 3 3 3 2 1 1 1 1 1 1 2
12 11 13 16 19 20 20 20 20 20 20 19 18 17 15 14 12 10 7 5 3 2 4 6 7 8 8 8 7 6 5 5 4 3 3 3 4 4 4 3 3 2 2 1 1 1 1 1 1
11 11 13 17 18 17 19 19 19 18 19 18 18 17 17 15 13 10 8 6 3 2 2 4 5 7 8 7 7 7 6 6 5 4 3 3 3 4 4 3 3 3 2 2 2 1 1 1 1
9 10 12 15 16 16 17 18 18 17 18 18 17 18 17 16 13 10 8 6 3 1 2 4 5 6 8 8 8 8 8 7 6 5 4 4 4 4 4 4 3 3 2 2 2 1 0 1 1
5 10 13 14 14 15 16 17 18 18 18 18 17 17 16 15 14 12 9 6 4 1 1 4 5 7 8 9 9 9 9 8 7 6 5 4 4 4 4 4 4 3 3 2 2 1 0 1 1
7 9 11 12 12 13 14 16 17 17 18 19 18 17 16 15 13 12 10 8 4 3 2 3 5 6 8 9 10 10 10 9 8 7 6 5 4 4 4 4 4 3 3 3 2 1 1 1 2
5 7 9 10 11 11 12 13 15 17 17 19 19 18 16 14 13 13 11 9 6 4 3 3 4 6 7 10 11 11 11 11 10 8 6 5 5 4 4 4 4 4 3 3 3 2 2 2 2
1 4 7 7 8 9 10 12 13 15 17 18 18 17 16 15 14 13 12 10 8 6 4 3 5 6 7 10 11 12 12 11 10 9 7 6 5 4 3 3 3 3 3 3 2 2 2 3 3
1 2 3 4 6 7 8 10 12 14 16 17 17 16 15 15 14 14 14 11 9 8 6 5 5 7 8 10 12 13 12 12 11 10 8 7 5 4 3 3 3 3 3 2 2 2 2 3 3
4 4 3 4 4 5 7 9 11 13 15 16 17 16 15 15 15 14 14 12 10 9 8 7 6 6 7 9 12 12 13 12 12 11 10 8 6 5 4 3 3 3 3 2 2 2 2 2 3
4 4 3 3 4 5 7 9 11 12 15 16 17 16 15 16 15 14 14 12 11 9 8 8 6 6 6 7 10 11 12 13 13 12 11 9 8 6 5 4 4 3 3 3 2 2 2 2 2
2 2 2 3 4 6 7 10 13 15 16 16 16 17 16 16 16 14 13 12 11 10 9 8 6 4 5 6 8 11 13 14 13 13 12 10 9 7 5 4 3 3 2 2 2 2 2 2 2
1 1 2 3 5 7 9 11 12 15 16 16 16 17 16 16 15 14 13 12 11 11 10 9 6 4 3 4 7 11 13 14 14 14 13 11 10 8 6 5 4 3 3 2 3 2 2 2 2
2 2 1 4 5 7 10 11 12 15 17 16 17 18 18 17 16 13 14 12 11 11 10 10 8 6 3 3 5 9 13 14 15 14 14 12 11 9 7 6 5 4 3 3 3 3 3 3 3
4 4 2 4 5 7 9 12 14 16 17 17 18 18 19 18 15 13 13 12 11 11 10 10 9 6 5 3 5 8 11 13 15 14 14 12 11 9 8 6 6 5 4 4 4 3 3 3 3
7 6 5 4 6 9 11 14 14 16 17 18 18 18 19 18 16 14 12 11 11 11 11 10 9 7 5 4 4 7 9 13 13 13 14 13 12 10 8 7 6 6 6 5 5 4 4 4 3
9 8 6 4 6 10 12 13 14 16 16 17 18 18 18 17 16 15 13 11 11 11 10 10 9 7 5 4 4 6 8 12 13 13 14 14 12 11 9 8 7 7 7 7 6 6 6 5 5
10 10 8 8 9 11 13 13 13 14 15 16 18 18 16 17 16 15 13 11 10 10 10 10 9 7 5 4 3 5 7 10 11 13 14 14 13 12 11 9 9 8 8 8 7 7 7 7 7
11 11 11 12 12 14 15 14 13 13 14 15 16 16 16 15 15 14 13 12 10 10 10 10 8 7 6 5 2 4 7 9 10 12 14 14 13 13 11 10 10 9 9 9 9 9 9 9 9
12 12 12 13 13 13 15 15 14 14 14 14 15 16 15 15 15 14 13 12 10 9 9 10 9 7 6 4 3 3 7 9 10 12 13 13 13 12 12 11 11 10 11 10 10 10 10 10 10
13 14 14 14 14 13 13 15 14 14 13 14 15 15 16 16 15 14 13 12 10 9 9 10 9 7 6 5 4 5 7 9 10 10 11 12 12 12 13 12 12 12 12 12 11 11 11 11 11
15 15 15 15 14 12 13 15 14 13 13 12 14 15 16 16 15 14 13 12 11 10 10 10 8 7 6 5 4 5 6 8 9 9 10 11 12 13 13 13 13 13 13 13 12 11 12 12 12
16 16 16 15 14 12 12 13 12 12 13 13 14 15 16 15 15 15 13 11 11 10 9 8 8 7 6 5 4 5 6 8 9 9 9 11 11 12 12 13 13 13 14 14 13 13 13 13 13
16 16 16 16 14 13 13 13 13 12 13 13 13 13 13 13 14 14 12 10 10 10 9 8 7 7 5 4 3 4 5 7 8 9 9 10 11 12 12 13 14 14 14 14 14 14 14 15 15
15 15 16 17 16 17 16 14 14 13 14 13 14 15 14 14 13 12 11 9 10 9 9 8 7 6 5 4 3 5 5 6 7 8 9 10 11 12 13 13 13 13 14 15 15 16 16 16 16
14 14 17 18 18 18 17 16 14 15 15 15 15 15 14 15 14 11 9 8 9 9 9 9 8 7 5 4 3 5 6 7 8 9 10 10 11 12 13 14 15 14 14 15 16 16 17 17 17
15 15 17 18 19 19 18 17 17 17 17 16 15 15 14 15 15 12 9 8 9 9 9 10 9 8 6 5 4 5 6 7 8 8 9 10 12 13 13 14 16 16 17 16 16 16 16 17 19
19 17 17 19 19 20 21 19 18 18 18 17 15 16 16 14 13 13 10 10 9 9 9 9 9 8 7 6 6 6 6 7 8 9 10 11 12 13 14 15 15 16 17 17 17 17 17 18 19
Wind_Direction
91 85 76 67 57 52 47 40 33 31 34 33 28 25 25 23 24 27 28 53 122 145 152 165 172 174 168 169 176 179 184 203 225 235 269 301 315 332 331 336 341 350 6 27 40 52 64 73 80
91 86 76 65 57 49 43 36 30 27 29 30 27 27 26 26 30 32 36 60 115 150 160 168 177 176 177 180 184 193 206 215 230 242 270 288 307 322 326 324 322 325 337 4 21 36 52 75 77
94 86 80 69 59 49 39 33 26 22 23 25 24 24 24 28 34 36 44 61 91 149 173 183 187 183 186 191 195 200 208 219 234 246 268 288 301 313 322 320 308 304 310 336 353 11 31 57 71
97 97 80 67 54 43 33 27 19 16 17 20 23 23 24 27 32 32 36 45 64 132 181 189 190 192 194 195 197 198 204 220 234 244 264 283 294 301 311 312 303 296 300 313 334 354 10 45 70
97 92 79 67 55 38 29 21 15 11 10 13 14 19 23 28 30 24 25 35 50 102 165 192 200 201 202 200 201 206 211 221 231 241 259 274 292 300 304 306 301 294 289 293 314 320 340 32 71
98 85 79 67 54 39 26 17 6 4 8 12 13 15 20 27 29 22 20 28 39 82 175 194 200 206 208 208 210 213 216 222 231 238 251 265 279 288 294 302 297 286 279 279 292 304 313 70 93
88 85 77 65 54 36 20 9 359 359 4 7 10 12 16 24 28 25 20 22 19 7 218 210 216 220 220 215 216 219 221 224 229 235 246 257 267 280 288 290 288 283 279 279 286 283 227 134 132
87 82 70 58 47 30 13 0 354 352 360 5 5 7 13 21 26 22 18 16 16 356 298 230 220 227 225 222 221 222 225 227 229 232 242 251 261 270 277 277 282 281 279 278 277 266 212 159 158
93 67 60 48 31 20 2 353 351 352 356 2 2 5 9 15 22 19 12 10 10 348 321 250 234 228 226 224 223 224 226 229 228 230 237 244 253 257 270 273 279 276 273 273 267 250 216 180 172
89 44 48 37 17 4 347 342 344 349 353 0 1 1 4 10 18 18 11 7 10 352 326 281 257 246 235 228 224 224 226 227 227 229 231 235 243 250 266 273 277 273 270 273 263 241 215 192 185
278 336 356 2 1 347 335 333 339 344 351 357 359 357 1 4 14 17 12 8 7 358 338 313 272 254 240 229 224 224 225 225 225 226 226 230 237 238 255 265 264 266 270 270 252 237 217 203 199
268 287 300 322 339 329 326 334 337 339 349 354 356 353 357 358 3 10 8 8 7 359 347 332 291 268 252 237 224 224 226 225 222 221 222 228 233 231 246 259 259 261 263 263 244 240 221 208 201
290 310 314 328 329 335 335 335 334 339 344 348 353 353 353 355 356 1 5 9 4 357 350 338 313 279 262 244 222 220 220 218 217 216 220 225 230 233 243 253 252 253 254 254 241 244 238 207 199
284 306 341 347 339 337 343 335 335 335 338 347 353 356 352 351 350 352 358 0 1 1 353 342 325 308 271 242 224 215 215 214 214 214 218 222 227 231 237 236 247 262 251 244 235 232 218 210 209
264 328 7 7 353 345 341 335 334 334 337 345 353 356 353 348 344 344 350 353 353 356 355 349 340 333 285 242 224 211 210 213 214 214 217 221 223 224 229 230 243 248 236 229 212 206 203 192 196
226 227 309 349 348 340 330 331 329 332 335 343 351 355 352 348 343 340 348 349 350 350 351 348 347 341 315 257 214 210 211 213 214 215 215 218 220 219 218 219 224 230 227 219 209 198 201 197 197
244 249 281 342 340 326 324 323 326 326 333 340 345 349 350 349 344 340 347 349 349 348 348 344 344 335 322 282 233 220 217 215 213 215 214 212 210 209 211 212 218 223 221 218 211 202 205 206 199
262 267 278 312 324 315 314 315 315 318 325 334 340 342 345 345 345 342 343 347 350 349 345 342 339 327 314 291 246 227 223 214 211 210 210 210 208 205 207 209 211 216 218 219 217 212 212 213 213
260 266 269 282 297 301 303 304 307 310 315 325 334 338 339 343 347 345 341 342 346 349 345 344 336 325 316 302 263 227 216 213 211 210 210 209 207 207 209 209 212 215 218 220 222 221 224 224 221
260 261 254 248 261 278 289 296 301 307 310 319 329 334 334 341 347 344 341 339 342 349 349 346 341 332 321 308 284 224 212 206 207 207 210 209 206 208 210 212 216 220 220 221 225 230 231 228 228
253 258 254 251 257 268 280 287 293 301 306 316 327 332 333 339 344 343 341 339 341 345 344 342 338 327 322 312 283 216 205 205 204 207 210 208 206 208 212 217 220 222 222 226 229 231 231 232 232
251 254 256 257 261 266 274 278 280 289 299 311 321 330 333 337 342 342 341 340 338 338 338 336 334 330 326 316 278 221 208 207 205 205 204 204 208 213 218 221 223 228 232 233 234 235 234 235 235
253 254 258 260 263 268 271 274 280 285 294 308 322 330 331 335 340 340 339 335 331 331 333 330 328 327 318 309 272 230 212 211 210 208 208 211 217 221 224 227 228 231 235 236 239 240 239 240 240
251 254 259 261 261 259 264 272 278 285 292 304 319 328 331 334 337 340 340 336 333 328 329 329 326 325 317 302 266 236 216 211 212 212 212 216 222 226 229 230 230 233 236 237 240 242 241 242 242
252 255 256 256 257 255 264 273 283 286 294 301 310 324 331 333 334 334 332 331 335 332 328 328 324 320 314 305 261 235 220 216 214 217 219 218 220 225 229 233 235 238 239 240 243 247 244 245 246
254 255 257 258 254 250 260 274 284 291 294 296 304 314 326 334 333 332 329 326 334 335 331 329 326 325 317 306 257 232 228 221 216 216 220 223 225 229 234 237 237 239 242 242 245 249 250 250 250
248 255 258 258 255 254 257 270 281 292 296 300 308 317 327 333 333 334 330 322 328 333 334 328 324 325 321 310 256 232 229 226 226 224 226 229 232 235 237 242 242 243 246 246 247 250 251 252 252
244 251 254 255 256 258 258 264 276 292 300 306 313 316 326 329 331 332 327 326 326 326 330 333 325 321 315 302 268 245 234 238 237 236 237 243 244 245 246 246 245 247 251 252 251 252 254 255 255
242 247 253 255 257 259 261 261 263 277 289 297 304 316 321 324 325 328 328 325 325 325 328 331 326 317 307 292 269 255 251 249 247 246 244 247 249 249 251 251 250 251 252 252 253 255 256 256 255
241 247 252 255 257 259 262 260 261 272 283 290 298 307 312 323 327 335 331 326 325 322 324 326 324 319 311 298 280 269 268 265 260 254 252 253 253 253 253 254 255 254 255 252 255 256 257 256 257
Height
5912 5912 5912 5913 5911 5909 5908 5907 5907 5906 5905 5904 5903 5902 5900 5899 5898 5899 5896 5895 5895 5895 5896 5897 5897 5898 5900 5901 5903 5904 5905 5906 5907 5907 5908 5908 5908 5908 5908 5908 5908 5907 5907 5907 5906 5906 5906 5906 5906
5914 5914 5915 5914 5912 5910 5910 5909 5908 5907 5906 5905 5904 5903 5902 5900 5898 5897 5896 5895 5895 5896 5896 5897 5898 5899 5900 5901 5903 5904 5905 5906 5907 5908 5908 5909 5909 5909 5909 5909 5908 5908 5908 5907 5907 5907 5906 5907 5906
5917 5917 5917 5915 5912 5912 5911 5910 5909 5908 5907 5906 5905 5904 5903 5900 5898 5897 5896 5895 5895 5896 5896 5897 5898 5899 5901 5902 5903 5904 5905 5906 5907 5908 5909 5909 5909 5909 5909 5909 5909 5909 5908 5908 5907 5907 5907 5907 5907
5919 5919 5918 5915 5913 5913 5912 5912 5911 5911 5909 5907 5906 5905 5903 5901 5898 5897 5896 5896 5895 5896 5896 5897 5898 5899 5900 5902 5903 5904 5905 5907 5907 5908 5909 5909 5910 5910 5910 5909 5909 5909 5908 5908 5908 5907 5907 5907 5907
5920 5920 5918 5916 5915 5915 5914 5913 5913 5913 5911 5909 5908 5905 5903 5901 5898 5897 5896 5895 5895 5896 5896 5897 5898 5899 5900 5901 5903 5904 5905 5906 5907 5908 5909 5909 5910 5910 5910 5910 5909 5909 5908 5908 5908 5907 5907 5907 5907
5923 5921 5920 5917 5917 5916 5915 5915 5915 5914 5912 5910 5908 5905 5903 5901 5899 5897 5895 5895 5895 5896 5896 5897 5898 5899 5899 5900 5902 5903 5905 5906 5907 5908 5909 5909 5909 5910 5910 5910 5909 5909 5908 5908 5908 5908 5908 5907 5907
5924 5922 5920 5919 5918 5918 5917 5916 5916 5914 5913 5911 5909 5906 5904 5902 5900 5897 5896 5895 5895 5895 5896 5897 5898 5898 5899 5900 5901 5902 5904 5905 5906 5907 5908 5909 5909 5909 5909 5909 5909 5909 5908 5908 5908 5908 5908 5908 5908
5924 5923 5921 5920 5919 5919 5919 5918 5917 5915 5913 5912 5909 5906 5904 5903 5901 5898 5896 5895 5895 5895 5895 5896 5896 5897 5898 5898 5900 5901 5902 5904 5905 5906 5907 5908 5908 5909 5909 5909 5908 5908 5908 5908 5908 5908 5908 5908 5908
5924 5924 5921 5921 5920 5920 5920 5919 5918 5916 5914 5912 5909 5906 5904 5903 5901 5899 5897 5895 5895 5895 5895 5895 5895 5895 5896 5897 5898 5899 5901 5902 5904 5905 5906 5907 5908 5908 5908 5908 5908 5908 5908 5908 5908 5908 5908 5908 5908
5924 5923 5922 5922 5922 5921 5921 5919 5918 5916 5914 5912 5909 5906 5904 5902 5901 5899 5897 5895 5895 5894 5893 5893 5894 5893 5894 5895 5896 5898 5899 5901 5902 5904 5905 5906 5907 5907 5907 5907 5907 5907 5907 5907 5907 5907 5907 5908 5907
5923 5923 5922 5921 5921 5921 5921 5920 5918 5916 5915 5913 5910 5907 5904 5902 5901 5899 5897 5895 5894 5893 5892 5891 5891 5891 5892 5893 5894 5895 5897 5899 5901 5903 5904 5905 5906 5906 5906 5906 5907 5907 5907 5907 5907 5907 5907 5908 5907
5923 5923 5921 5921 5921 5921 5920 5919 5918 5917 5916 5913 5910 5907 5905 5902 5900 5899 5898 5896 5894 5892 5891 5890 5889 5889 5890 5890 5891 5893 5895 5897 5899 5901 5903 5904 5905 5905 5906 5906 5906 5906 5906 5906 5907 5907 5907 5907 5907
5924 5923 5922 5921 5920 5920 5919 5919 5918 5917 5915 5913 5911 5908 5905 5902 5900 5899 5897 5895 5893 5892 5890 5888 5887 5887 5887 5888 5889 5891 5893 5895 5897 5899 5901 5902 5904 5904 5905 5905 5905 5906 5906 5906 5906 5906 5907 5907 5907
5923 5923 5922 5921 5920 5918 5918 5918 5917 5916 5914 5913 5911 5907 5905 5902 5900 5898 5896 5894 5892 5891 5889 5887 5885 5885 5885 5886 5887 5889 5891 5893 5895 5897 5899 5901 5902 5903 5904 5904 5905 5905 5905 5905 5906 5906 5906 5906 5907
5923 5923 5922 5921 5919 5918 5918 5918 5917 5915 5914 5912 5910 5907 5904 5902 5899 5897 5895 5893 5892 5890 5888 5886 5885 5884 5884 5884 5885 5886 5889 5891 5893 5895 5897 5899 5901 5902 5903 5904 5904 5904 5905 5905 5905 5906 5906 5906 5906
5923 5922 5921 5920 5919 5918 5919 5917 5916 5914 5913 5911 5909 5907 5904 5901 5898 5895 5894 5892 5890 5889 5887 5885 5883 5883 5882 5882 5883 5884 5886 5889 5891 5893 5895 5897 5899 5900 5901 5903 5903 5904 5904 5904 5905 5905 5906 5906 5906
5921 5921 5920 5919 5918 5918 5917 5915 5914 5913 5911 5910 5908 5906 5903 5901 5897 5895 5893 5891 5889 5888 5885 5884 5882 5881 5881 5881 5881 5882 5884 5886 5888 5890 5893 5895 5897 5898 5900 5901 5902 5903 5903 5904 5904 5905 5905 5906 5906
5919 5919 5918 5917 5917 5916 5915 5914 5913 5911 5910 5909 5908 5905 5903 5900 5897 5895 5892 5890 5888 5887 5885 5883 5881 5880 5879 5879 5879 5881 5882 5884 5886 5888 5891 5893 5895 5897 5898 5899 5900 5901 5902 5903 5904 5904 5905 5905 5906
5917 5917 5916 5916 5915 5915 5913 5912 5912 5910 5909 5908 5906 5905 5903 5900 5897 5894 5892 5890 5888 5886 5884 5882 5880 5879 5878 5878 5878 5879 5880 5882 5884 5886 5889 5891 5893 5895 5896 5897 5899 5900 5901 5902 5903 5903 5904 5904 5905
5914 5914 5914 5914 5914 5913 5912 5911 5910 5909 5907 5906 5905 5903 5902 5900 5897 5894 5892 5889 5887 5885 5884 5882 5880 5878 5877 5876 5876 5877 5878 5880 5882 5884 5886 5889 5891 5893 5895 5896 5897 5899 5899 5900 5901 5902 5902 5903 5904
5912 5912 5912 5912 5912 5910 5910 5909 5908 5908 5906 5905 5904 5902 5901 5898 5896 5893 5891 5888 5886 5885 5883 5881 5879 5877 5876 5875 5875 5876 5877 5878 5880 5882 5884 5886 5889 5890 5892 5894 5895 5897 5898 5899 5899 5900 5901 5901 5902
5908 5909 5909 5909 5909 5908 5908 5907 5906 5904 5904 5903 5902 5901 5899 5897 5894 5891 5889 5887 5885 5884 5882 5880 5878 5876 5875 5874 5873 5874 5875 5877 5878 5880 5882 5884 5886 5888 5890 5891 5893 5894 5895 5896 5897 5898 5898 5899 5900
5905 5905 5906 5905 5905 5905 5905 5904 5904 5902 5902 5901 5900 5900 5898 5895 5892 5890 5888 5886 5884 5882 5881 5879 5877 5875 5874 5873 5872 5872 5874 5875 5877 5878 5880 5882 5884 5886 5887 5889 5890 5892 5893 5894 5894 5895 5896 5896 5897
5901 5902 5902 5902 5902 5903 5902 5901 5901 5900 5899 5899 5899 5897 5896 5893 5890 5888 5886 5885 5883 5881 5879 5878 5876 5874 5873 5871 5871 5871 5872 5873 5875 5877 5878 5880 5881 5883 5885 5886 5888 5889 5890 5891 5892 5893 5893 5894 5894
5897 5898 5899 5899 5899 5900 5899 5898 5898 5897 5897 5896 5896 5895 5893 5891 5889 5887 5885 5883 5881 5879 5877 5876 5874 5873 5871 5870 5869 5869 5870 5872 5874 5875 5876 5878 5879 5881 5882 5884 5885 5886 5887 5888 5889 5889 5890 5891 5892
5893 5894 5896 5896 5896 5896 5895 5894 5895 5894 5893 5892 5892 5891 5890 5889 5887 5885 5883 5881 5880 5878 5876 5874 5873 5872 5870 5869 5868 5869 5869 5870 5872 5873 5874 5875 5877 5878 5879 5880 5881 5883 5883 5884 5885 5886 5887 5888 5888
5889 5890 5891 5891 5891 5891 5891 5891 5891 5891 5890 5890 5889 5888 5887 5886 5884 5882 5880 5879 5878 5877 5875 5873 5872 5871 5869 5868 5867 5868 5868 5869 5870 5871 5872 5873 5874 5875 5876 5877 5878 5879 5880 5881 5882 5883 5883 5884 5885
5885 5886 5886 5887 5887 5887 5888 5888 5888 5887 5887 5887 5887 5886 5885 5884 5881 5879 5878 5877 5876 5875 5873 5872 5870 5869 5868 5867 5867 5867 5867 5868 5868 5869 5870 5871 5871 5872 5873 5874 5875 5876 5877 5877 5878 5879 5879 5880 5880
5880 5882 5882 5883 5883 5883 5883 5886 5885 5884 5884 5883 5883 5883 5883 5882 5879 5877 5876 5875 5874 5873 5872 5870 5869 5868 5867 5866 5866 5866 5866 5866 5866 5867 5867 5868 5869 5869 5870 5870 5871 5872 5872 5873 5873 5874 5874 5875 5876
5875 5877 5878 5879 5880 5879 5879 5883 5881 5881 5880 5880 5880 5881 5880 5878 5877 5876 5874 5873 5872 5871 5870 5868 5867 5866 5865 5864 5864 5864 5864 5864 5864 5864 5865 5865 5865 5866 5866 5866 5867 5867 5867 5868 5869 5869 5870 5870 5871